FW5236 Weather Reports


time (UTC)temp
C
wind
direction
speed
KPH
gust
KPH
rain 1hr
cm
rain 24hr
cm
rain mn
cm
humidity
%
barometer
mb
20260506151531 15 60 3.2 12.9 0.00 0.00 0.00 72 1019.7
20260506150032 14 48 3.2 12.9 0.00 0.00 0.00 78 1019.8
20260506144530 12 259 0.0 6.4 0.00 0.00 0.00 83 1019.9
20260506143029 11 238 3.2 6.4 0.00 0.00 0.00 85 1019.8
20260506141530 11 266 1.6 6.4 0.00 0.00 0.00 87 1019.7
20260506140026 9 275 1.6 8.0 0.00 0.00 0.00 89 1019.5
20260506134535 8 242 4.8 11.3 0.00 0.00 0.00 90 1019.3
20260506133032 8 262 1.6 9.7 0.00 0.00 0.00 91 1019.2
20260506131531 8 273 1.6 6.4 0.00 0.00 0.00 91 1019.2
20260506130103 8 264 3.2 6.4 0.00 0.00 0.00 91 1018.9
20260506123032 7 254 3.2 8.0 0.00 0.00 0.00 92 1018.6
20260506121608 8 236 1.6 6.4 0.00 0.00 0.00 92 1018.6
20260506113030 7 244 3.2 8.0 0.00 0.00 0.00 91 1018.3
20260506111532 8 231 3.2 6.4 0.00 0.00 0.00 91 1018.2
20260506110030 8 227 3.2 4.8 0.00 0.00 0.00 91 1018.1
20260506104533 8 240 3.2 6.4 0.00 0.00 0.00 91 1018.0
20260506101605 8 237 3.2 6.4 0.00 0.00 0.00 91 1018.0
20260506093030 8 244 3.2 6.4 0.00 0.00 0.00 91 1017.8
20260506091531 9 239 1.6 6.4 0.00 0.00 0.00 91 1017.7
20260506090029 9 235 3.2 8.0 0.00 0.00 0.00 90 1017.7
20260506084530 10 242 1.6 6.4 0.00 0.00 0.00 90 1017.6
20260506083028 10 248 0.0 4.8 0.00 0.00 0.00 90 1017.5
20260506081530 10 227 1.6 3.2 0.00 0.00 0.00 89 1017.4
20260506073033 10 225 1.6 3.2 0.00 0.00 0.00 87 1017.0
20260506071646 11 225 1.6 3.2 0.00 0.00 0.00 87 1016.9
20260506070103 11 225 0.0 3.2 0.00 0.00 0.00 85 1016.8
20260506061606 12 318 0.0 4.8 0.00 0.00 0.00 83 1016.6
20260506044530 13 48 0.0 3.2 0.00 0.00 0.00 78 1015.9
20260506043029 13 35 0.0 3.2 0.00 0.00 0.00 77 1015.7
20260506041526 13 33 0.0 1.6 0.00 0.00 0.00 75 1015.6
20260506040045 14 45 0.0 0.0 0.00 0.00 0.00 72 1015.3
20260506034527 15 4 0.0 0.0 0.00 0.00 0.00 70 1015.0
20260506031530 17 303 0.0 3.2 0.00 0.00 0.00 63 1014.6
20260506030105 18 292 0.0 1.6 0.00 0.00 0.00 58 1014.4
20260506024530 20 306 0.0 3.2 0.00 0.00 0.00 56 1014.2
20260506023029 20 304 0.0 3.2 0.00 0.00 0.00 54 1014.2
20260506021609 21 346 1.6 8.0 0.00 0.00 0.00 52 1014.0
20260506020144 22 47 1.6 6.4 0.00 0.00 0.00 51 1013.9
20260506014531 22 37 1.6 4.8 0.00 0.00 0.00 50 1013.9
20260506013031 22 29 1.6 6.4 0.00 0.00 0.00 50 1013.9
20260506011530 22 38 1.6 6.4 0.00 0.00 0.00 48 1013.9
20260506010107 23 37 3.2 9.7 0.00 0.00 0.00 47 1013.8
20260506003030 25 46 0.0 4.8 0.00 0.00 0.00 44 1013.8
20260506001645 25 43 1.6 8.0 0.00 0.00 0.00 43 1013.8
20260506000031 25 38 3.2 9.7 0.00 0.00 0.00 43 1013.8
20260505234605 25 41 3.2 11.3 0.00 0.00 0.00 43 1013.9
20260505233031 25 41 3.2 8.0 0.00 0.00 0.00 43 1014.0
20260505231531 25 44 3.2 6.4 0.00 0.00 0.00 42 1014.0
20260505224532 25 39 1.6 8.0 0.00 0.00 0.00 42 1014.2
20260505221531 25 53 1.6 4.8 0.00 0.00 0.00 42 1014.5
20260505220030 25 50 1.6 6.4 0.00 0.00 0.00 43 1014.6
20260505213029 25 47 1.6 6.4 0.00 0.00 0.00 43 1014.8
20260505211532 25 46 1.6 6.4 0.00 0.00 0.00 43 1014.9
20260505210029 25 39 0.0 6.4 0.00 0.00 0.00 44 1015.1
20260505204532 24 41 1.6 6.4 0.00 0.00 0.00 45 1015.3
20260505203032 24 44 1.6 6.4 0.00 0.00 0.00 44 1015.3
20260505201530 23 43 1.6 8.0 0.00 0.00 0.00 45 1015.4
20260505200033 22 34 1.6 4.8 0.00 0.00 0.00 48 1015.5
20260505193030 22 52 3.2 6.4 0.00 0.00 0.00 49 1015.7
20260505191605 22 45 3.2 9.7 0.00 0.00 0.00 50 1015.7
20260505190105 21 48 1.6 6.4 0.00 0.00 0.00 51 1015.8
20260505184530 21 37 1.6 6.4 0.00 0.00 0.00 52 1015.9
20260505183030 21 44 3.2 9.7 0.00 0.00 0.00 53 1016.0
20260505181532 20 50 3.2 8.0 0.00 0.00 0.00 54 1015.9
20260505180032 20 45 3.2 8.0 0.00 0.00 0.00 55 1015.9
20260505174530 20 42 1.6 6.4 0.00 0.00 0.00 56 1016.0
20260505171531 19 39 1.6 8.0 0.00 0.00 0.00 60 1015.9
20260505170029 18 53 1.6 6.4 0.00 0.00 0.00 61 1015.9
20260505164529 18 41 1.6 6.4 0.00 0.00 0.00 63 1015.9
20260505163030 17 43 1.6 11.3 0.00 0.00 0.00 65 1016.0
20260505161530 17 42 1.6 6.4 0.00 0.00 0.00 68 1016.0